Andalusia, AL

12:13 AM CDT on June 25, 2017 (GMT -0500)
Andalusia

Weather History for K79J - January, 2012

Change the Weather History Date:

Saturday, January 14, 2012

  Actual Average (KCEW) Record (KCEW)
Temperature  
Mean Temperature 44 °F -  
Max Temperature 60 °F 59 °F 78 °F (1952)
Min Temperature 27 °F 33 °F 16 °F (2011)
Degree Days  
Heating Degree Days 22    
Moisture  
Dew Point 22 °F    
Average Humidity 49    
Maximum Humidity 78    
Minimum Humidity 20    
Precipitation  
Precipitation 0.00 in - - ()
Sea Level Pressure  
Sea Level Pressure 30.33 in    
Wind  
Wind Speed 3 mph (West)    
Max Wind Speed 13 mph    
Max Gust Speed 17 mph    
Averages and records for this station are not official NWS values.
T = Trace of Precipitation, MM = Missing Value Source: NWS Daily Summary

Daily Weather History Graph

Daily Weather History Graph

Search for Another Location

Airport or City:

Trip Planner

Search our weather history database for the weather conditions in past years. The results will help you decide how hot, cold, wet, or windy it might be!

Date:

Astronomy

Jan. 14, 2012 Rise Set
Actual Time 6:45 AM CST 5:04 PM CST
Civil Twilight 6:18 AM CST 5:30 PM CST
Nautical Twilight 5:49 AM CST 6:00 PM CST
Astronomical Twilight 5:19 AM CST 6:29 PM CST
Moon 10:55 PM CST (1/14) 9:56 AM CST (1/14)
Length of Visible Light 11h 11m
Length of Day
10h 18m
Waning Gibbous, 68% of the Moon is Illuminated
Jan 14
Waning Gibbous
Jan 16
Last Quarter
Jan 23
New
Jan 30
First Quarter
Feb 7
Full

Hourly Weather History & Observations

Time (CST) Temp. Windchill Dew Point Humidity Pressure Visibility Wind Dir Wind Speed Gust Speed Precip Events Conditions
12:56 AM 30.0 °F - 21.9 °F 72% 30.30 in - Calm Calm - N/A   Clear
1:56 AM 28.9 °F - 21.9 °F 75% 30.30 in - Calm Calm - N/A   Clear
2:56 AM 28.9 °F - 21.9 °F 75% 30.31 in - Calm Calm - N/A   Clear
3:56 AM 28.0 °F - 21.9 °F 78% 30.32 in - Calm Calm - N/A   Clear
4:56 AM 28.0 °F - 21.0 °F 75% 30.34 in - Calm Calm - N/A   Clear
5:56 AM 27.0 °F - 19.9 °F 75% 30.36 in - Calm Calm - N/A   Clear
6:56 AM 27.0 °F - 21.0 °F 78% 30.37 in - Calm Calm - N/A   Clear
7:56 AM 34.0 °F - 25.0 °F 70% 30.40 in - Calm Calm - N/A   Clear
8:56 AM 39.9 °F 37.8 °F 23.0 °F 51% 30.41 in - NW 3.5 mph - N/A   Clear
9:56 AM 48.0 °F - 19.9 °F 33% 30.40 in - NW 3.5 mph - N/A   Clear
10:56 AM 51.1 °F - 15.1 °F 24% 30.36 in - West 5.8 mph - N/A   Clear
11:56 AM 54.0 °F - 14.0 °F 21% 30.34 in - Variable 5.8 mph - N/A   Clear
12:56 PM 55.9 °F - 16.0 °F 21% 30.30 in - West 8.1 mph - N/A   Clear
1:56 PM 57.9 °F - 17.1 °F 20% 30.28 in - West 12.7 mph 17.3 mph N/A   Clear
2:56 PM 60.1 °F - 18.0 °F 20% 30.27 in - WSW 11.5 mph 16.1 mph N/A   Clear
3:56 PM 59.0 °F - 17.1 °F 20% 30.28 in - West 6.9 mph 17.3 mph N/A   Clear
4:56 PM 55.9 °F - 19.9 °F 25% 30.28 in - WSW 3.5 mph - N/A   Clear
5:56 PM 52.0 °F - 21.9 °F 31% 30.29 in - SW 5.8 mph - N/A   Clear
6:56 PM 48.9 °F - 26.1 °F 41% 30.30 in - SW 5.8 mph - N/A   Clear
7:56 PM 48.0 °F - 28.0 °F 46% 30.30 in - WSW 6.9 mph - N/A   Clear
8:56 PM 46.9 °F - 27.0 °F 46% 30.31 in - WSW 5.8 mph - N/A   Clear
9:56 PM 46.0 °F 44.8 °F 28.0 °F 50% 30.33 in - West 3.5 mph - N/A   Clear
10:56 PM 42.1 °F - 28.9 °F 60% 30.33 in - Calm Calm - N/A   Clear
11:56 PM 43.0 °F 41.3 °F 30.9 °F 62% 30.33 in - West 3.5 mph - N/A   Clear